Location: Newark
(51.3318°N, 0.0053°E)
Time: 07:04:00
(UTC+00:00)

BlueWalker 3 - Pass Details

Date: 04 December 2022
Orbit: 499 x 517 km, 53.2° (Epoch: 28 January)

Event Time Altitude Azimuth Distance (km) Brightness Sun altitude
Rises 16:54:14 0° 271° (W) 2,634 6.9 -9.0°
Reaches altitude 10° 16:56:28 10° 275° (W) 1,744 5.7 -9.3°
Maximum altitude 17:00:23 65° 357° (N) 568 2.1 -9.9°
Enters shadow 17:03:39 14° 79° (E) 1,482 3.7 -10.3°
